This is the latest recevied weather packets stored in our database for station/object OE9MNR-10. If no packets are shown the sender has not sent any weather packets the latest 10 day(s).
| Time | Temp. | Humidity | Pressure | Rain* | Wind** | Luminosity | Snow |
|---|---|---|---|---|---|---|---|
| 1788144110 | 18.33° C | 100% | 970.2 hPa | - | - | - | - |
| 1788143810 | 17.78° C | 100% | 970.2 hPa | - | - | - | - |
| 1788143510 | 18.33° C | 100% | 970 hPa | - | - | - | - |
| 1788143210 | 18.33° C | 100% | 969.8 hPa | - | - | - | - |
| 1788142910 | 18.33° C | 100% | 969.8 hPa | - | - | - | - |
| 1788142310 | 18.33° C | 100% | 969.9 hPa | - | - | - | - |
| 1788142010 | 18.33° C | 100% | 969.8 hPa | - | - | - | - |
| 1788141710 | 18.33° C | 100% | 970 hPa | - | - | - | - |
| 1788141410 | 18.89° C | 100% | 969.8 hPa | - | - | - | - |
| 1788141110 | 18.89° C | 100% | 970.3 hPa | - | - | - | - |
| 1788140810 | 19.44° C | 100% | 970.4 hPa | - | - | - | - |
| 1788140510 | 19.44° C | 100% | 970.7 hPa | - | - | - | - |
| 1788140210 | 19.44° C | 100% | 970.8 hPa | - | - | - | - |
| 1788139910 | 20° C | 100% | 970.7 hPa | - | - | - | - |
| 1788139610 | 20° C | 100% | 970.6 hPa | - | - | - | - |
| 1788139010 | 20.56° C | 100% | 970.1 hPa | - | - | - | - |
| 1788138710 | 20° C | 100% | 969.8 hPa | - | - | - | - |
| 1788138410 | 20° C | 100% | 969.6 hPa | - | - | - | - |
| 1788138110 | 20° C | 100% | 969.1 hPa | - | - | - | - |
| 1788137810 | 20° C | 100% | 967.7 hPa | - | - | - | - |
| 1788137537 | 19.44° C | 100% | 967.5 hPa | - | - | - | - |
| 1788137237 | 19.44° C | 100% | 967.3 hPa | - | - | - | - |
| 1788136937 | 19.44° C | 100% | 967.2 hPa | - | - | - | - |
| 1788136637 | 19.44° C | 100% | 967.2 hPa | - | - | - | - |
| 1788136337 | 19.44° C | 100% | 967.3 hPa | - | - | - | - |
* Rain since midnight (hover to see other rain measurements)
** Current wind speed in m/s (hover to see current wind gust speed)